[[{"header":{"parameterUnit":"m.s-1","parameterCategory":1,"la1":30.2992,"la2":30.254,"lo1":-89.0895,"lo2":-89.0443,"dy":0.0025,"dx":0.0025,"nx":19,"ny":19,"refTime":"2026-03-22T03:00:00:Z","depth":0,"parameterNumber":2,"parameterNumberName":"U-component_of_WINDS"},"data":[0,0,0,0.4546,0.4548,0.4661,0.4661,0.4798,0.4799,0,0,0,0,0,0,0,0,0,0,0,0.4506,0.4506,0.4546,0.4548,0.466,0.4661,0.4798,0.4799,0,0,0,0,0,0,0,0,0,0,0,0.4505,0.4506,0.4507,0.4549,0.466,0.4661,0.4797,0.4716,0,0,0,0,0,0,0,0,0,0,0.4608,0.4563,0.4506,0.4507,0.4549,0.466,0.4661,0.4712,0.4721,0.4743,0,0.4759,0,0.4781,0.4808,0.4808,0,0,0,0.4554,0.4555,0.4592,0.4507,0.455,0.466,0.4612,0.4717,0.4727,0.4755,0.4761,0.4766,0.4783,0.4808,0.4809,0.4915,0.4915,0,0,0.4548,0.4522,0.4585,0.4598,0.4577,0.4608,0.4615,0.4723,0.4729,0.4761,0.477,0.4785,0.4809,0.481,0.4915,0.4915,0,0,0,0.4526,0.4517,0.4552,0.4592,0.4613,0.4611,0.4619,0.4724,0.4737,0.4771,0.4787,0.481,0.4811,0.4914,0.4915,0.49,0,0,0,0.4523,0.4505,0.4549,0.4534,0.4611,0.4669,0.4617,0.473,0.4743,0.4786,0.481,0.4813,0.4914,0.4915,0.49,0.4897,0,0,0,0.4501,0.4502,0.4516,0.4533,0.458,0.4668,0.4688,0.4733,0.4752,0.4808,0.4813,0.4914,0.4914,0.49,0.4897,0.4917,0,0,0,0.447,0.45,0.4515,0.4557,0.4579,0.4657,0.4687,0.4748,0.4794,0.4811,0.4914,0.4915,0.4899,0.4896,0.4917,0.4929,0.4932,0,0,0.4494,0.4502,0.4529,0.4546,0.4615,0.4642,0.4712,0.4779,0.4809,0.4879,0.4882,0.49,0.4897,0.4917,0.4958,0.496,0,0,0,0.4528,0.4547,0.4571,0.4613,0.4665,0.4711,0.4771,0.4797,0.4857,0.4838,0.4914,0.4913,0.4926,0.4934,0.4935,0.4949,0.4917,0.4917,0.4917,0.4523,0.4561,0.4608,0.466,0.4701,0.4764,0.4802,0.4849,0.4873,0.4891,0.4911,0.4931,0.4939,0.494,0.4954,0.4922,0.4922,0.4922,0.4922,0.4562,0.4595,0.463,0.4688,0.4729,0.478,0.4844,0.4861,0.4916,0.4918,0.4932,0.493,0.4941,0.4955,0.4921,0.4921,0.4921,0.4921,0.4921,0.4562,0.4585,0.4616,0.4684,0.4733,0.4786,0.4838,0.4874,0.4908,0.4922,0.4948,0.4949,0.4954,0.4932,0.4932,0.4932,0.4932,0.4933,0.4933,0.4549,0.4586,0.4623,0.4684,0.4719,0.4768,0.4836,0.4872,0.492,0.4943,0.4943,0.4967,0.4935,0.4926,0.4934,0.4934,0.4933,0.4933,0.4933,0.4572,0.4574,0.4632,0.4666,0.4744,0.4792,0.4838,0.4909,0.4944,0.4969,0.4993,0.4963,0.4974,0.4973,0.4965,0.4983,0.4983,0.4983,0.4983,0.4572,0.4582,0.4651,0.4704,0.4761,0.481,0.4879,0.4935,0.4992,0.5017,0.5021,0.5015,0.5012,0.5025,0.5023,0.5016,0.5047,0.5047,0.5047,0.4589,0.4607,0.4655,0.4711,0.4776,0.4831,0.4898,0.4961,0.5027,0.505,0.5038,0.5035,0.5026,0.5021,0.504,0.5036,0.5025,0,0]},{"header":{"parameterUnit":"m.s-1","parameterCategory":1,"la1":30.2992,"la2":30.254,"lo1":-89.0895,"lo2":-89.0443,"dy":0.0025,"dx":0.0025,"nx":19,"ny":19,"refTime":"2026-03-22T03:00:00:Z","depth":0,"parameterNumber":3,"parameterNumberName":"V-component_of_WINDS"},"data":[0,0,0,-1.8331,-1.833,-1.8286,-1.8286,-1.8223,-1.8222,0,0,0,0,0,0,0,0,0,0,0,-1.8343,-1.8342,-1.8331,-1.833,-1.8286,-1.8286,-1.8223,-1.8222,0,0,0,0,0,0,0,0,0,0,0,-1.8343,-1.8342,-1.8342,-1.833,-1.8286,-1.8285,-1.8223,-1.8258,0,0,0,0,0,0,0,0,0,0,-1.8303,-1.8311,-1.8342,-1.8342,-1.833,-1.8286,-1.8285,-1.826,-1.8256,-1.8241,0,-1.8229,0,-1.8225,-1.8218,-1.8218,0,0,0,-1.8331,-1.8315,-1.8305,-1.8342,-1.8329,-1.8286,-1.8306,-1.8258,-1.8254,-1.8236,-1.8228,-1.8226,-1.8224,-1.8218,-1.8217,-1.813,-1.8129,0,0,-1.8334,-1.8333,-1.8308,-1.8302,-1.831,-1.8307,-1.8305,-1.8255,-1.8246,-1.8228,-1.8224,-1.8223,-1.8217,-1.8217,-1.813,-1.813,0,0,0,-1.834,-1.8335,-1.8326,-1.8304,-1.8297,-1.8306,-1.8303,-1.8248,-1.8245,-1.8224,-1.8222,-1.8217,-1.8216,-1.8131,-1.813,-1.8106,0,0,0,-1.8342,-1.8339,-1.8327,-1.8326,-1.8298,-1.8272,-1.8297,-1.8249,-1.8243,-1.8222,-1.8217,-1.8215,-1.8131,-1.8131,-1.8107,-1.8093,0,0,0,-1.8346,-1.8339,-1.8332,-1.8326,-1.8307,-1.8273,-1.8267,-1.8248,-1.8242,-1.8218,-1.8215,-1.8132,-1.8131,-1.8109,-1.8096,-1.8068,0,0,0,-1.835,-1.8311,-1.8332,-1.8288,-1.8308,-1.826,-1.8268,-1.8232,-1.8208,-1.8216,-1.8131,-1.813,-1.811,-1.8097,-1.807,-1.8042,-1.8032,0,0,-1.8301,-1.8305,-1.828,-1.8297,-1.8244,-1.8266,-1.821,-1.8189,-1.8187,-1.8149,-1.8147,-1.8107,-1.8096,-1.8068,-1.7979,-1.797,0,0,0,-1.8263,-1.8244,-1.8231,-1.8209,-1.8193,-1.8176,-1.8164,-1.8156,-1.8124,-1.8168,-1.8091,-1.8085,-1.8068,-1.8055,-1.8048,-1.8032,-1.8125,-1.8125,-1.8125,-1.819,-1.8191,-1.8147,-1.8142,-1.8121,-1.8109,-1.809,-1.8077,-1.8084,-1.8066,-1.8053,-1.7999,-1.7984,-1.7978,-1.7963,-1.8042,-1.8042,-1.8042,-1.8042,-1.8115,-1.8086,-1.8098,-1.8059,-1.8059,-1.8026,-1.8013,-1.8019,-1.7987,-1.8009,-1.7995,-1.8015,-1.7969,-1.7955,-1.804,-1.804,-1.804,-1.8041,-1.8041,-1.8064,-1.805,-1.8042,-1.801,-1.7985,-1.7982,-1.7951,-1.7953,-1.7955,-1.7941,-1.7926,-1.7927,-1.7925,-1.7935,-1.7935,-1.7935,-1.7934,-1.7934,-1.7934,-1.8012,-1.8004,-1.7978,-1.7958,-1.7944,-1.7926,-1.7914,-1.79,-1.7884,-1.7888,-1.7887,-1.7893,-1.7966,-1.7982,-1.7931,-1.7932,-1.7932,-1.7932,-1.7932,-1.7929,-1.7948,-1.7908,-1.7894,-1.787,-1.7844,-1.7849,-1.7819,-1.7808,-1.7792,-1.7802,-1.7857,-1.7861,-1.7867,-1.788,-1.7805,-1.7805,-1.7805,-1.7805,-1.7883,-1.7887,-1.7845,-1.7822,-1.78,-1.78,-1.7752,-1.7743,-1.7736,-1.7729,-1.7741,-1.776,-1.7766,-1.7766,-1.7774,-1.7786,-1.7689,-1.7689,-1.7689,-1.783,-1.7832,-1.7791,-1.7786,-1.7768,-1.7752,-1.7706,-1.7678,-1.7674,-1.7684,-1.7722,-1.7727,-1.7758,-1.7768,-1.7775,-1.7787,-1.7809,0,0]}]]